DECAYED

OBJECT L, 43859 (Decayed)

Orbit data source: Space-Track

You're viewing an Uncataloged Satellite

Recently launched and/or uncataloged satellites may have evolving metadata. Metadata may include but not limited to: Owner, Maufacturer, Bus, Motor, and Mission.

OBJECT L, 43859 was a satellite owned by NASA GRC (US) in LEO that was launched on Sun, 16 Dec 2018 UTC via an ELECTRON launch vehicle from the Rocket Lab Launch Complex (RLLC). Unknown objects in Earth's orbit typically refer to objects detected orbiting the Earth but have not yet been identified or cataloged. These objects could be anything from previously untracked satellites, spent rocket stages, debris from satellite collisions, or even natural meteoroids temporarily captured by Earth's gravity. This object's orbit decayed before it could be identified.

Not visible in the next 10 days
OBJECT L details
Identifier
43859, 2018-104L
Orbit
Decayed
Last TLE update5 months ago
Origin
Flag of USNASA GRC (US)
ManufacturerNASA GRC
MissionDecayed Civil Technology
Bus & MotorCUBESAT 3U, Unknown motor
Mass2.91 kg wet, 2.91 kg dry
Launch date (UTC)
2018-12-16 (6 years ago)
Launch vehicle
ELECTRON
Launch site
Rocket Lab Launch Complex (RLLC)
Object typeUnknown
Shape & HBRBox + 4 Pan, 0.6 m
Radar Cross Section0.066 m², Small (<0.1 m²)

Expand to show TLE details & history

TLE from 5 months ago
0 OBJECT L
1 43859U 18104L   24194.91423858  .09173232 -15042-5  34830-3 0  9999
2 43859  84.9829 254.0101 0013879 258.4364 101.5385 16.42702273311208
Epoch: 2024-07-12T21:56Z
Definitive object data (Epoch: 2024-07-12T21:56:30.213Z)
Latitude
Longitude-6.39948°
Altitude163.766 km
Speed7.807 km/s
True Right ascension16h 56m 02s
True Declination0° 00' 00"
Sunlit
Object was in full shadow at TLE epoch
Visualization observer readout
Observer readout values are unavailable because the object's trajectory could not be propagated. This is usually caused when the trajectory data is faulty or the object's orbit has decayed.
Visualization observer readout
Observer readout values are unavailable because the object's trajectory could not be propagated. This is usually caused when the trajectory data is faulty or the object's orbit has decayed.
Orbital elements
Apogee altitude164.406 km
Perigee altitude146.27 km
Semi-major axis6,533.475 km
Eccentricity0.0013879
Inclination84.9829°
RAAN254.0101°
Arg. of periapsis258.4364°
True anomaly101.69427°
Mean anomaly101.5385°
Eccentric anomaly101.61639°
Mean motion4.10986 °/min
BSTAR0.0003483
Orbital period87.59 mins
Loading maneuver chart data...

OBJECT L Visibility forecast

Observer location: undefined°, undefined

This satellite is decayed
Span
Click to sort rows by Start time (UTC) header in descending order
Start Az.
Max El. time (UTC)
Max El. Az.
Max El.
End time (UTC)
End Az.
|